Theta_e
347 347 350 351 353 352 352 356 358 359 361 359 355 350 348 346 347 348 347 346 347 347 345 343 341 338 336 338 339 338 337 339 340 339 338 338 338 338 337 336 336 336 337 338 338 338 339 339 339 339 339 338 338 338 339 339 338 338 338 337 338 338 339
350 348 350 352 353 352 351 358 360 360 361 357 352 349 347 348 348 348 347 347 348 346 343 342 340 337 336 337 338 339 339 339 340 339 338 338 337 336 336 336 336 338 338 339 338 338 338 338 339 339 338 338 338 338 338 337 337 337 336 336 337 338 339
352 350 351 352 355 352 352 359 361 361 361 355 350 348 347 349 350 347 346 348 347 345 343 341 339 338 338 337 338 339 340 340 339 339 338 337 337 335 335 336 337 338 338 339 338 337 337 337 338 338 338 338 338 338 338 337 335 336 336 336 337 337 339
353 352 351 353 355 355 355 359 359 361 359 353 349 347 348 350 350 347 347 348 347 345 344 342 340 339 339 339 339 340 341 340 339 338 337 337 336 335 335 335 336 337 337 337 337 337 337 337 337 337 337 337 338 337 336 336 335 335 334 335 336 336 337
353 352 351 353 355 354 355 357 359 362 358 352 348 347 349 352 349 346 347 348 346 345 344 343 341 341 340 340 339 339 340 339 339 338 337 337 336 335 335 336 335 336 337 337 336 336 337 337 336 336 336 336 336 335 335 334 334 334 334 335 336 335 334
352 352 353 354 354 354 355 356 358 360 356 349 347 347 351 351 347 345 346 346 345 345 345 344 342 342 341 341 340 340 340 339 338 338 337 337 336 335 335 336 335 335 336 336 336 336 336 336 336 336 336 336 335 336 335 335 335 334 334 335 336 336 335
352 356 355 355 354 354 356 357 358 357 353 348 347 349 349 347 344 343 344 345 344 345 345 344 343 343 342 341 341 341 340 340 339 339 338 337 336 336 335 335 334 334 335 335 336 335 335 335 336 336 336 336 336 337 337 337 338 336 335 336 335 336 336
353 357 356 355 355 353 353 357 357 353 349 347 347 347 347 345 344 341 344 345 343 343 344 342 343 344 343 342 340 340 340 340 339 339 338 337 336 336 334 334 333 333 333 334 335 334 335 334 335 335 336 336 337 338 339 339 339 338 336 335 335 336 336
352 358 358 356 353 351 351 354 354 351 347 345 347 348 346 344 344 341 343 343 342 341 341 340 343 345 345 344 341 339 339 339 338 337 337 336 335 334 334 332 331 331 332 333 332 333 334 333 334 335 336 337 338 339 340 340 339 339 339 338 337 338 337
355 361 361 356 351 350 350 351 351 348 346 347 349 348 346 345 344 342 342 341 340 339 339 338 338 341 344 344 341 339 339 339 338 337 336 335 333 333 333 331 330 330 330 331 331 331 332 333 333 334 335 336 338 341 341 341 340 340 339 338 338 338 337
359 364 363 358 353 351 350 350 351 349 348 349 350 349 348 345 345 342 341 340 338 338 339 339 337 337 341 342 341 339 339 338 338 337 335 334 333 332 331 331 329 330 330 330 330 330 330 331 332 332 333 334 338 342 343 341 340 340 339 337 336 337 337
360 365 365 362 358 354 352 354 352 351 351 350 352 350 348 346 345 344 342 340 337 337 338 339 339 339 340 340 338 337 338 338 337 336 335 334 333 332 332 331 330 329 329 330 329 329 328 329 329 331 331 332 335 341 342 341 341 341 340 338 337 338 337
360 366 366 364 361 356 357 356 353 353 352 352 353 351 348 348 347 344 343 339 337 337 336 338 340 340 340 339 336 335 337 337 337 336 334 333 333 333 332 331 331 331 331 331 331 330 329 328 329 330 330 331 333 337 340 341 341 341 340 340 339 339 337
359 364 365 365 363 359 360 357 354 355 355 356 355 351 351 351 348 347 345 341 337 336 337 338 340 341 342 339 336 335 336 335 335 335 334 333 333 333 332 333 332 332 332 332 331 330 329 329 328 329 330 331 333 336 338 338 338 338 338 339 340 339 337
356 360 363 366 364 362 362 359 358 360 360 359 355 352 353 352 351 349 346 341 339 337 338 340 342 343 342 340 338 337 336 335 335 334 333 333 333 333 333 333 333 333 333 332 332 331 330 330 330 330 331 333 335 337 337 336 336 337 337 336 338 337 334
352 354 360 365 366 364 362 362 362 362 362 359 355 353 353 352 351 348 343 340 338 339 339 341 343 344 342 340 338 337 337 337 336 335 334 334 334 334 334 333 334 335 334 333 331 331 331 331 331 332 331 333 334 335 335 334 335 335 335 335 335 334 332
347 352 355 360 364 364 363 363 363 363 362 358 354 354 353 352 351 346 341 338 338 339 341 342 344 344 342 340 338 337 337 337 337 336 335 335 334 335 334 334 336 336 335 333 332 331 331 330 331 331 331 332 334 335 335 335 334 334 333 335 336 334 332
346 349 352 356 362 364 364 363 364 364 362 358 355 355 353 351 349 342 340 337 337 339 342 342 343 343 343 341 338 337 337 337 337 336 335 335 335 335 335 336 336 337 336 333 331 331 330 330 330 331 331 333 335 336 336 334 333 333 332 333 334 334 331
346 345 349 354 359 363 363 362 363 365 363 359 355 356 352 347 343 339 340 338 338 340 341 341 340 341 343 342 338 337 337 336 336 336 335 336 335 335 335 335 337 338 336 333 331 330 329 330 330 331 331 333 334 335 334 332 332 333 331 328 329 331 331
346 346 349 354 356 359 361 361 363 362 362 360 357 355 349 339 335 338 340 338 340 340 340 340 339 340 343 341 339 337 336 336 337 336 335 335 335 336 336 336 338 339 335 332 331 330 330 330 331 331 332 332 332 331 331 330 330 329 329 326 327 328 330
348 349 351 353 356 357 359 361 361 360 360 359 356 353 346 337 335 339 340 339 341 342 341 340 339 341 341 340 338 337 336 336 336 336 336 336 335 336 337 339 340 337 333 331 330 330 331 331 330 331 331 331 331 330 330 330 328 327 328 327 327 327 329
348 348 350 353 356 357 358 360 360 358 358 358 353 348 344 340 340 341 341 340 341 342 342 341 341 341 341 338 338 336 336 336 335 336 336 336 336 336 337 339 339 335 332 331 331 331 331 329 330 330 329 330 331 331 331 330 328 326 327 328 328 328 329
346 347 351 353 354 355 357 357 357 357 356 354 350 345 343 341 341 341 341 340 341 341 341 340 341 341 339 338 336 336 336 336 335 335 336 335 335 334 334 337 338 334 330 331 331 331 330 329 330 330 329 330 331 330 330 329 329 327 326 326 328 329 330
345 348 351 353 354 355 355 356 358 356 354 350 346 343 342 342 341 341 341 341 340 340 340 340 341 341 339 338 337 335 336 336 335 336 335 334 333 333 333 335 335 333 331 332 332 330 329 330 329 329 329 330 330 330 328 327 327 327 326 326 326 328 330
345 349 352 352 353 355 356 357 357 354 351 348 344 342 343 342 340 340 340 340 340 340 340 340 340 339 339 338 337 335 336 336 336 336 335 333 332 332 332 333 333 332 332 333 332 329 329 329 329 329 330 330 330 329 328 328 329 327 325 325 325 327 329
348 350 352 353 354 356 357 356 355 353 349 346 344 343 343 342 340 340 341 341 341 340 339 340 339 338 338 338 337 336 335 336 337 336 335 333 331 331 332 332 334 334 333 333 332 329 329 329 329 330 330 330 329 329 328 330 330 326 324 324 325 326 329
352 351 351 352 354 357 356 354 354 352 346 345 346 345 343 342 341 342 342 342 343 341 340 339 338 338 338 338 336 335 336 337 336 336 335 333 332 331 331 334 336 335 334 333 331 329 330 331 331 331 331 330 330 329 329 329 328 325 325 325 325 327 328
352 351 351 353 355 356 355 355 353 348 344 345 347 346 343 341 343 345 344 344 344 343 341 339 338 337 338 338 335 335 337 337 336 336 335 333 332 332 332 335 337 335 333 332 330 330 332 333 333 331 330 330 329 329 331 331 326 323 325 326 327 329 328
351 350 352 353 354 354 352 352 350 347 344 345 345 343 342 341 344 347 346 345 344 344 343 340 339 338 338 337 337 337 338 337 336 336 334 332 333 334 335 335 336 334 334 333 332 332 333 332 332 332 330 331 330 329 331 332 328 325 325 326 327 328 327
351 350 352 350 349 351 349 349 350 347 344 342 339 339 341 343 346 349 349 348 347 346 345 342 339 339 339 340 340 339 338 337 336 334 333 333 334 335 336 335 334 334 335 333 333 332 331 331 332 331 331 330 330 330 330 331 330 328 326 327 327 326 324
349 348 346 343 345 347 347 348 350 347 343 341 341 343 346 349 350 351 351 351 348 347 346 344 343 343 344 344 343 340 338 337 335 333 333 334 335 334 334 334 333 334 334 334 333 332 331 331 331 331 331 330 330 331 331 328 328 328 327 327 326 324 323
347 344 342 342 345 345 343 343 345 345 346 347 349 351 351 351 350 350 350 350 349 347 347 347 347 346 345 343 340 336 335 335 334 332 333 335 334 332 332 332 332 332 332 332 333 331 331 331 330 329 330 329 327 327 329 327 326 328 328 326 324 323 323
346 345 346 348 347 345 343 342 342 343 344 347 349 348 347 346 347 347 346 345 344 345 347 348 347 345 342 340 337 335 335 334 332 330 330 331 331 331 331 331 330 330 331 330 329 328 328 329 329 328 329 328 325 325 328 328 327 327 326 323 321 322 321
349 349 350 349 345 343 343 341 340 341 343 345 347 345 343 342 341 340 342 343 340 341 344 345 344 341 340 338 336 335 335 334 332 331 329 328 329 330 331 331 329 329 331 330 328 328 328 328 328 327 327 327 326 326 328 328 327 325 322 319 319 320 320
350 350 348 346 345 345 345 344 344 346 347 346 345 343 342 341 338 334 335 338 337 339 340 341 340 338 336 335 335 333 333 333 331 331 330 330 329 330 330 330 328 328 330 329 327 327 327 326 326 325 325 325 326 325 326 326 323 321 319 317 317 318 318
348 346 345 346 346 348 348 347 346 346 346 344 342 340 341 341 339 335 332 332 336 337 338 338 337 334 332 333 332 332 332 331 329 330 330 329 330 330 329 327 326 325 326 325 324 324 323 323 323 322 322 324 324 322 321 321 319 317 317 317 317 317 317
345 344 344 345 347 346 345 344 344 344 342 341 341 340 339 338 338 336 333 333 336 337 336 336 336 333 331 330 331 332 331 330 329 329 328 328 328 328 328 327 325 323 323 322 321 321 321 320 321 320 320 321 321 320 317 316 316 316 316 316 317 318 317
341 342 342 342 344 344 342 342 343 342 340 339 339 338 336 335 335 335 333 333 335 335 334 335 335 333 332 330 332 332 332 330 329 329 327 327 328 327 328 330 327 323 320 319 319 319 319 319 319 318 318 318 318 317 316 315 314 314 314 315 317 318 317
Wind_Speed
17 17 17 15 15 15 14 18 21 22 22 21 21 21 20 18 17 15 15 15 13 13 12 10 9 7 6 6 5 5 5 4 4 4 4 4 4 4 5 6 7 8 9 9 9 9 9 9 9 9 9 9 10 10 10 10 10 11 11 11 11 12 12
17 16 17 16 16 16 17 21 23 23 23 22 22 22 20 18 18 16 15 15 14 14 12 11 9 8 6 6 6 5 6 5 5 5 5 5 5 5 5 6 8 8 9 9 9 10 10 10 10 10 10 10 10 11 11 10 10 11 12 12 12 13 12
16 16 17 16 16 17 18 21 23 24 24 24 23 23 22 20 19 17 16 16 15 14 13 11 9 8 7 6 6 6 6 6 6 6 6 5 5 5 6 6 8 8 9 9 9 9 10 10 10 11 11 11 11 11 11 11 11 11 12 12 12 12 12
15 16 17 17 17 17 17 21 25 26 25 25 25 24 23 21 19 18 17 16 16 15 13 12 10 9 8 7 6 7 7 6 6 6 6 6 5 5 6 7 7 8 8 9 9 10 10 11 11 11 11 11 12 12 12 12 12 12 12 12 12 12 12
14 16 16 16 17 16 16 20 24 26 25 26 26 25 24 22 20 19 17 16 16 15 14 12 10 9 8 7 7 7 7 7 6 6 6 6 6 6 7 7 8 8 8 8 8 9 10 11 11 11 11 12 12 12 12 12 12 12 12 13 12 12 12
13 15 15 15 16 17 17 20 24 27 26 27 27 25 24 23 21 20 18 17 16 15 14 13 11 10 9 8 8 7 7 7 7 7 7 7 7 7 8 8 8 9 9 9 8 9 10 11 11 11 12 12 13 13 13 13 12 12 12 12 12 12 12
11 13 15 15 16 16 17 20 25 27 26 27 27 25 24 23 21 20 19 18 17 16 15 13 11 11 10 8 8 8 8 7 7 8 7 8 8 8 8 8 9 9 10 9 9 10 10 11 11 12 12 12 13 13 13 13 12 12 12 11 12 12 12
11 12 14 15 15 14 14 18 24 26 25 26 26 26 25 23 21 20 19 18 17 16 14 13 12 12 10 9 8 8 8 8 8 8 8 8 8 9 9 9 9 10 10 10 10 10 10 11 12 12 13 13 13 13 13 13 13 12 11 11 12 12 12
10 12 14 15 15 13 13 18 24 25 25 25 26 25 25 23 22 21 20 18 16 15 14 12 12 12 11 9 8 8 8 8 8 8 8 9 9 10 9 9 9 10 9 10 10 11 11 11 12 13 14 14 14 13 12 12 12 12 11 11 11 11 11
8 11 13 15 15 14 15 20 21 21 23 24 24 25 25 24 22 21 20 18 16 15 14 11 10 11 11 10 9 8 8 8 8 8 9 9 9 10 10 10 10 9 8 9 11 11 11 12 12 13 14 14 14 13 12 12 12 12 12 11 11 12 12
7 10 12 14 16 17 18 19 17 18 22 23 24 25 25 23 22 21 20 18 16 15 14 12 10 9 10 10 9 8 9 9 9 8 9 9 9 10 10 10 10 9 9 11 11 11 12 12 12 12 13 14 14 13 12 11 12 13 13 13 12 13 14
7 9 11 14 16 17 17 17 15 18 23 24 25 25 24 24 23 21 19 18 15 13 12 12 11 10 10 9 8 8 9 9 9 9 9 9 9 10 10 10 10 11 11 11 11 12 13 13 13 13 13 14 15 14 13 12 12 12 13 13 12 12 13
8 9 11 12 14 15 15 16 16 19 23 25 25 26 25 24 23 21 20 18 14 11 11 11 10 10 9 8 7 7 8 9 9 9 9 9 9 10 10 10 11 11 12 12 13 14 15 14 14 14 14 15 15 15 14 12 12 12 11 12 12 12 12
10 11 12 13 14 15 16 16 16 18 22 25 26 26 25 23 22 21 19 16 13 12 11 11 10 11 10 8 7 8 8 9 8 8 9 9 9 10 10 10 10 11 12 13 14 14 14 15 15 15 15 16 15 14 13 13 12 11 11 11 11 12 13
11 12 13 15 15 16 17 17 16 17 21 24 25 25 25 23 21 18 15 12 12 13 12 11 11 11 10 9 8 8 9 8 8 8 9 10 10 10 10 10 11 11 12 13 14 14 14 15 16 16 16 15 14 13 14 15 13 11 11 12 12 12 13
11 12 14 15 16 16 17 17 17 18 21 24 25 26 25 22 20 19 16 14 16 15 13 12 12 12 10 9 9 9 9 9 9 9 9 10 10 10 11 11 11 12 12 13 14 14 15 15 15 16 16 15 14 13 15 15 12 12 13 15 15 15 14
10 11 13 14 16 16 17 17 18 18 21 24 26 26 25 23 22 21 17 18 18 16 14 13 13 12 11 10 10 10 9 9 9 10 10 10 11 11 12 12 12 12 13 13 14 15 15 15 15 15 15 15 14 14 13 13 12 13 14 15 18 19 17
9 10 11 13 14 15 17 18 19 19 22 25 27 27 25 23 22 18 16 20 18 16 15 14 13 12 11 11 11 10 10 10 10 10 11 11 12 12 13 13 13 13 13 13 13 14 14 14 14 15 15 14 14 13 13 13 13 12 12 13 17 19 19
10 10 10 11 12 14 16 16 17 20 23 26 28 27 25 24 23 16 22 21 17 15 15 14 13 12 12 12 11 11 11 11 11 11 11 11 12 12 13 13 13 13 12 12 12 12 13 14 14 14 15 14 12 13 14 13 13 11 11 13 16 19 20
9 8 8 9 11 13 14 14 16 21 24 26 28 27 27 28 24 24 26 20 17 16 15 14 13 12 12 13 12 12 12 12 12 12 11 11 12 13 13 13 12 12 12 12 11 12 12 13 14 14 14 12 11 13 14 14 13 14 15 16 16 18 20
7 7 8 9 10 11 12 13 16 20 23 25 26 26 27 28 27 26 23 19 18 17 16 15 14 13 14 13 13 14 13 13 13 12 11 12 12 12 13 13 12 11 11 11 11 11 11 12 12 12 11 11 11 12 13 13 14 16 17 18 17 17 18
6 7 7 8 10 11 12 14 16 19 21 23 25 25 25 26 26 24 21 20 19 18 17 16 15 15 15 15 15 16 15 14 13 12 12 12 12 12 12 12 12 11 11 11 10 10 10 10 10 10 10 10 10 10 11 13 15 17 18 19 18 17 17
4 6 7 8 9 11 13 14 16 19 21 23 24 24 23 24 23 21 20 19 19 18 18 17 17 17 17 17 17 17 16 15 13 12 12 11 12 12 12 12 12 11 11 11 10 10 10 10 9 9 10 10 9 9 11 13 15 17 19 19 18 18 19
4 6 7 9 10 12 13 14 16 19 22 23 23 22 22 22 21 20 19 19 20 19 19 19 19 19 19 19 18 17 16 14 13 12 12 11 12 12 11 12 12 12 11 11 11 11 11 11 10 10 10 10 9 10 12 13 14 16 20 20 17 19 20
6 8 9 10 12 13 14 15 16 19 21 22 22 21 20 20 20 19 19 20 20 20 20 20 20 19 19 18 17 16 14 13 12 12 12 12 12 11 11 12 12 12 12 12 12 12 12 11 11 11 11 10 10 11 11 11 12 15 19 19 16 17 20
7 9 10 11 13 14 15 16 18 20 21 21 20 20 19 19 19 19 19 20 19 19 20 20 19 18 17 16 15 15 14 13 12 12 12 12 11 11 12 13 12 13 13 13 13 13 12 11 12 12 12 11 11 11 9 8 11 16 19 18 15 14 17
9 10 11 13 14 15 16 16 18 20 20 19 18 18 18 18 17 17 18 18 18 19 19 18 17 16 15 15 15 15 13 12 12 13 13 12 11 11 12 12 12 13 13 13 14 13 12 12 11 12 13 11 11 11 7 7 12 15 16 15 13 12 15
10 10 12 14 15 15 15 16 16 18 19 17 16 16 16 15 15 16 17 17 18 19 18 17 16 15 15 15 15 14 12 12 13 13 12 12 12 12 12 12 13 14 14 14 13 13 12 12 12 12 12 12 12 10 6 7 12 14 11 12 12 11 13
10 11 13 15 15 15 15 15 16 18 18 15 15 15 13 13 14 15 16 18 19 19 17 16 16 15 16 16 15 14 13 13 13 12 11 13 12 11 12 13 13 14 14 14 14 13 13 12 12 13 12 11 11 9 6 6 9 11 11 11 9 10 13
10 11 13 14 15 14 14 14 14 15 15 13 12 12 12 13 13 14 16 17 18 16 15 15 16 16 16 16 15 14 13 13 13 13 13 13 12 11 12 13 13 14 14 14 14 13 13 12 11 11 11 11 10 9 7 6 7 9 11 9 8 11 15
10 11 12 12 13 13 13 12 12 12 11 10 8 7 8 10 11 13 15 15 14 13 13 13 13 14 14 14 13 13 13 12 12 13 12 11 11 11 11 12 13 13 12 13 14 13 13 11 10 10 11 10 9 8 5 3 4 7 9 8 10 14 16
10 11 11 10 11 11 10 10 10 9 8 7 5 4 5 7 8 9 10 10 9 9 9 10 11 12 12 12 12 13 13 12 12 12 12 11 9 10 11 11 11 12 12 13 13 13 12 10 10 12 11 8 11 12 6 2 2 4 6 8 11 14 15
10 10 10 10 10 9 8 8 8 8 7 7 7 6 6 6 6 6 6 6 7 7 7 9 11 11 12 12 11 12 13 12 11 11 11 11 9 10 11 9 10 12 12 10 11 14 15 13 12 12 10 8 11 11 5 2 2 4 6 10 13 14 16
10 11 11 11 10 9 8 7 6 6 6 6 5 2 2 2 3 5 4 5 6 7 7 9 10 11 11 11 10 10 11 10 9 8 9 10 9 8 8 7 10 11 8 6 8 10 12 14 13 12 13 12 10 7 5 5 5 6 10 14 14 15 16
11 12 12 11 10 10 9 8 7 7 7 6 4 2 1 1 3 5 5 5 6 6 7 9 9 10 10 9 10 10 10 9 9 8 7 8 7 4 3 6 11 11 6 5 7 8 8 11 11 11 13 12 8 7 7 7 7 9 11 13 12 12 13
11 11 12 12 11 11 11 10 10 9 8 6 5 3 2 1 1 4 6 6 3 3 6 8 9 9 10 10 11 11 10 9 9 8 7 9 8 4 2 5 8 9 5 4 8 8 7 8 7 7 9 8 6 7 6 6 8 11 11 11 9 8 9
10 11 11 12 12 12 12 12 11 10 9 7 6 5 3 2 1 2 4 3 2 3 6 8 9 9 11 12 10 8 8 10 10 8 8 10 10 9 5 5 4 3 3 2 4 5 5 4 4 4 5 3 4 6 7 7 9 11 11 11 9 6 6
11 12 12 12 12 13 13 12 11 10 9 7 6 5 3 1 1 2 3 2 3 5 7 8 10 11 12 13 9 4 5 8 9 9 9 9 9 9 7 4 5 2 2 2 2 2 2 4 4 5 5 5 5 5 7 9 11 11 11 12 10 5 4
Wind_Direction
200 193 187 187 187 184 185 188 184 179 176 174 171 170 172 169 163 162 166 170 172 171 175 179 180 189 201 204 212 225 239 245 246 256 260 259 267 274 281 286 292 295 293 294 297 300 303 303 306 307 306 307 307 307 309 312 315 316 318 317 311 307 306
197 198 191 187 186 185 186 189 186 178 176 176 173 172 173 170 166 166 169 174 175 175 179 181 183 189 197 203 212 223 230 234 238 242 246 248 250 260 274 284 289 290 289 289 290 294 297 299 302 304 303 302 301 301 304 308 312 313 314 315 311 309 308
196 199 195 188 186 185 184 187 188 180 176 176 175 175 174 170 169 170 172 176 177 179 182 183 186 189 192 202 212 219 223 227 232 235 243 248 248 257 270 278 284 288 287 286 286 287 290 293 297 299 298 296 295 297 301 303 306 309 310 311 309 306 305
198 199 197 190 186 183 181 187 188 181 178 178 176 175 173 170 171 172 175 178 179 182 185 184 188 191 192 202 211 217 219 221 229 235 240 244 245 252 264 271 279 285 286 286 286 283 283 286 290 292 293 292 293 296 298 298 302 308 310 309 307 304 303
201 201 198 190 188 184 182 189 188 180 177 177 176 174 172 170 172 175 178 181 182 185 187 186 189 192 194 202 211 217 218 219 224 230 236 239 243 250 258 268 277 283 287 289 288 283 281 284 287 290 292 293 295 296 295 294 298 306 311 308 305 304 305
204 203 198 192 191 187 183 187 188 182 177 176 174 173 172 173 175 179 180 181 184 186 187 188 190 192 197 204 210 213 213 218 221 225 233 235 239 250 258 268 278 282 285 288 289 287 285 286 287 290 292 294 297 298 297 296 298 304 309 307 306 308 309
205 202 199 195 195 192 185 185 186 183 178 174 173 173 176 177 179 182 181 182 185 187 188 191 192 194 201 204 209 214 214 220 222 223 233 236 241 253 260 268 276 279 282 284 287 287 286 288 290 291 292 296 299 299 299 299 301 304 306 306 307 308 309
202 199 200 196 193 194 192 189 185 180 177 174 172 177 180 180 181 183 183 184 187 190 193 197 196 196 202 204 207 215 217 221 225 227 234 240 246 253 258 266 275 277 277 279 283 286 287 289 291 291 290 293 295 296 298 299 300 303 302 303 304 303 305
200 196 198 195 189 189 199 200 186 175 175 175 173 179 182 181 183 185 185 185 186 192 198 202 198 193 198 204 208 215 218 221 227 231 236 243 249 254 262 272 274 271 271 279 286 287 286 288 289 290 290 290 289 289 291 295 298 299 296 296 299 296 299
198 195 195 192 188 185 196 201 187 171 174 175 174 179 183 182 184 185 185 187 189 193 198 202 200 194 195 203 210 214 218 222 227 233 240 247 254 256 262 272 278 283 287 288 288 285 284 285 284 285 286 286 286 281 279 286 291 292 290 291 294 293 294
194 196 196 194 190 187 190 193 183 171 174 175 175 180 182 182 184 184 184 188 192 195 195 196 201 201 199 203 211 215 218 225 230 237 244 250 259 264 268 278 289 293 286 281 284 287 288 287 284 284 285 286 286 277 271 279 284 285 287 290 292 293 294
196 193 200 202 195 188 186 184 178 174 175 176 177 179 180 181 182 182 182 187 194 195 190 190 196 201 203 208 216 218 220 227 234 241 248 252 259 265 270 278 282 284 286 292 298 296 293 291 289 288 287 287 284 275 270 274 277 280 285 289 291 290 289
205 193 197 204 199 191 184 180 180 178 176 177 177 177 178 178 179 180 181 185 191 194 191 191 195 198 203 211 221 224 225 231 236 242 251 256 260 264 267 274 282 291 299 301 297 293 294 295 294 291 291 290 285 277 271 270 272 275 276 279 280 278 279
209 199 195 197 199 195 188 184 183 178 176 177 176 175 174 175 178 179 177 179 188 197 198 194 194 197 201 207 218 226 229 234 239 243 249 254 258 262 266 273 284 291 292 290 287 290 296 299 297 295 293 292 288 280 274 272 274 273 271 270 267 266 273
212 207 201 196 197 196 191 188 183 178 179 178 174 172 173 175 177 170 162 173 194 205 203 194 194 198 200 204 213 222 226 232 238 242 246 251 256 260 266 274 280 285 288 287 287 291 297 299 298 294 291 291 289 283 277 276 273 266 266 268 266 268 275
223 217 209 200 197 196 193 190 185 182 182 179 176 174 173 173 165 149 152 183 202 205 202 194 195 198 200 206 213 218 223 228 235 241 245 250 256 261 268 275 279 285 290 289 289 293 298 298 295 292 291 292 290 283 277 275 270 266 268 268 270 276 279
235 226 218 208 200 197 194 191 189 187 185 183 179 174 173 171 153 141 166 199 201 198 198 196 197 199 201 208 212 215 222 227 233 241 244 249 257 264 271 276 279 284 289 289 291 295 297 296 293 291 294 294 291 287 284 282 281 282 282 278 276 279 279
249 238 229 218 205 199 197 194 191 190 188 185 179 174 174 162 135 137 193 210 197 194 198 196 198 200 202 208 212 214 221 229 234 240 244 249 258 265 271 277 278 281 285 288 292 296 298 297 293 293 294 293 290 289 288 291 293 292 292 290 286 285 282
257 246 232 221 208 201 201 199 194 192 189 184 179 174 164 140 125 160 211 209 191 193 197 194 199 203 204 209 212 213 221 228 234 240 244 250 259 265 271 275 275 278 284 290 295 298 299 298 296 295 295 295 298 300 301 305 306 299 300 301 296 292 285
252 243 226 216 208 201 201 201 199 197 192 186 180 168 149 140 153 191 207 198 187 193 197 197 200 203 206 210 212 215 221 227 231 237 243 249 256 262 268 271 270 274 284 290 294 297 298 299 299 299 300 306 310 305 305 309 306 300 301 303 300 296 287
238 227 217 206 200 198 198 199 200 199 195 188 178 161 147 154 175 191 193 188 189 193 195 198 201 205 209 210 212 216 220 224 229 234 241 248 253 258 264 265 264 271 281 285 288 294 298 301 304 308 316 326 322 308 304 304 303 304 304 299 299 299 291
223 211 207 197 193 192 192 195 198 196 191 184 174 162 157 165 176 181 183 187 191 193 196 199 202 207 211 211 214 216 217 221 226 230 239 248 252 255 258 258 257 264 272 273 276 284 292 296 302 309 315 318 317 312 309 306 307 311 310 303 300 297 289
207 190 187 182 182 182 185 192 192 187 183 179 171 165 164 167 172 176 184 190 193 195 199 200 204 208 211 213 215 216 217 220 223 229 238 246 252 256 258 255 253 257 261 259 261 271 280 282 286 294 299 301 306 309 309 310 314 317 314 311 304 293 284
170 158 165 168 170 172 176 182 181 177 176 175 169 166 167 169 173 180 188 195 198 199 201 204 208 210 211 214 216 216 218 221 223 229 236 243 250 256 259 255 252 253 252 250 255 266 274 277 278 284 288 291 299 307 310 312 316 317 313 309 301 290 285
156 146 154 160 161 163 167 171 172 171 171 170 167 168 170 173 179 186 194 201 204 204 206 209 211 211 212 215 217 218 221 223 226 232 237 244 251 256 261 260 255 252 249 249 257 267 270 271 276 282 285 289 296 305 312 313 313 315 311 302 293 289 289
152 144 150 154 155 157 161 166 169 171 172 171 170 172 175 180 188 196 202 205 208 211 213 213 214 214 215 216 217 220 222 224 228 235 240 246 251 255 261 260 253 250 250 252 260 269 271 272 279 282 282 286 293 297 302 307 308 312 311 302 296 299 297
148 149 153 151 150 153 160 168 174 176 175 172 173 177 181 188 198 206 209 210 213 218 219 218 216 214 214 216 220 223 224 225 232 238 241 245 249 254 260 257 251 253 255 254 261 269 269 268 273 278 280 282 288 291 291 302 310 314 312 302 298 304 305
149 153 148 143 147 156 164 169 174 177 177 175 179 185 190 197 207 215 217 216 218 221 221 219 216 212 213 218 222 224 226 233 239 242 244 247 247 248 253 252 251 255 255 255 262 266 261 259 265 271 275 278 281 282 276 295 315 321 318 307 302 303 306
155 155 144 144 154 163 167 168 173 179 180 181 187 191 200 213 219 223 227 226 225 224 222 217 215 214 214 218 220 222 229 239 242 243 248 251 247 245 249 251 251 253 253 254 258 258 255 257 261 265 270 275 278 278 272 286 313 324 322 316 312 308 310
155 153 150 155 157 160 164 165 172 182 185 190 199 203 210 222 227 228 232 235 233 230 226 223 221 216 214 214 214 217 225 233 235 236 241 244 243 244 248 252 253 251 249 251 254 256 256 255 255 261 270 273 270 268 274 293 316 324 320 315 312 314 317
154 151 156 158 153 158 166 164 168 181 188 198 215 214 205 214 225 230 233 238 241 237 231 228 222 212 208 204 202 209 221 229 234 239 240 238 240 246 249 255 258 255 253 251 250 252 254 255 261 267 268 273 279 276 275 301 315 315 316 314 315 319 318
146 147 150 143 139 154 168 169 174 179 177 182 201 210 205 209 223 235 239 244 246 239 229 222 216 211 210 205 199 205 218 225 232 243 244 235 238 253 258 258 260 263 264 262 262 265 264 261 266 271 274 296 307 299 300 347 320 310 325 327 322 320 316
139 140 138 129 127 139 152 162 174 178 173 176 189 211 222 216 219 236 244 247 245 237 225 221 220 218 216 209 200 203 213 218 224 236 247 247 248 257 259 259 265 267 266 274 290 296 292 284 280 287 297 299 283 278 289 14 352 342 350 339 329 325 322
137 132 128 125 125 130 136 143 154 160 158 160 162 179 228 247 262 264 256 253 256 247 228 218 215 214 211 207 203 206 211 218 222 230 254 269 269 267 270 275 280 283 292 316 309 295 291 293 295 301 305 296 287 297 325 343 351 351 338 330 329 331 332
130 127 123 121 121 121 121 122 124 123 119 115 108 93 76 332 302 294 281 273 269 247 219 210 208 209 209 209 217 220 216 223 235 240 254 268 268 270 273 263 266 275 301 329 300 280 285 297 301 305 305 307 332 356 339 332 345 336 323 323 329 335 341
127 128 126 124 121 117 115 115 118 120 116 112 111 107 104 96 348 318 303 293 276 220 211 214 214 217 224 228 235 239 233 236 249 259 268 275 276 274 216 209 241 258 265 279 285 287 294 298 301 312 314 322 6 10 345 341 340 328 325 331 328 330 345
136 136 134 131 127 123 121 122 122 122 120 119 120 116 107 98 66 349 321 310 278 241 238 230 224 235 251 254 253 258 260 262 269 279 283 282 280 276 251 176 177 267 290 275 285 301 313 315 321 335 334 3 44 16 354 343 334 332 338 335 321 321 350
149 146 143 141 135 130 129 127 124 122 121 118 116 112 101 79 65 5 330 306 265 262 257 245 239 249 260 263 263 268 267 267 274 283 284 281 278 278 269 192 142 99 32 31 13 16 25 15 18 21 17 34 50 23 357 342 339 344 346 337 331 334 349